Погода в Бриансоне

Франция     44°54′32″N   6°37′31″E
темп.,
°C
ветер,
м/с
пор.,
м/с
влажн.,
%
обл.,
%
осадки,
мм/ч
давл.,
гПа
погр.,
м
24 января, вс
вс2401:00−11з229398 0.4 99935
04:00−11зсз2293100 0.0 99938
07:00−12сз239489 0.0 99942
10:00−9сз359046 0.0 1001317
13:00−7сз456629 0.0 1001756
16:00−8зсз23730 0.0 1003111
19:00−12з227230 0.1 100524
22:00−12юз2296100 1.2 100580
25 января, пн
пн2501:00−11юз3496100 3.7 1003188
04:00−10зюз349499 1.9 1003128
07:00−13сз359396 2.7 1004147
10:00−11зсз348976 0.1 1006343
13:00−9зсз467258 0.2 10051433
16:00−10зсз348118 0.1 1006604
19:00−16сз239423 0.1 101036
22:00−17сз239411 0.0 101334
26 января, вт
вт2601:00−18сз239722 0.0 101640
04:00−19сз239728 0.0 101744
07:00−19сз239526 0.0 101942
10:00−13сз348622 0.0 1021141
13:00−8сз347111 0.0 1020358
16:00−10сз34780 0.0 1019256
19:00−17сз23721 0.0 102234
22:00−16сз336140 0.0 102237
27 января, ср
ср2701:00−12зсз336066 0.0 102239
04:00−11сз336228 0.0 102038
07:00−11сз339328 0.1 102048
10:00−6сз359237 0.1 1020179
13:00−2зсз348847 0.2 1019416
16:00−2зсз349078 0.1 1018359
19:00−7зсз339466 0.2 102041
22:00−7сз459530 0.0 102198
28 января, чт
чт2801:00−7сз348952 0.0 102063
04:00−7сз349134 0.0 101865
07:00−4з239756 0.8 101780
10:00−2юз3498100 7.6 1016182
13:00−1зюз3499100 16.8 1014243
16:000зюз2399100 8.4 1013223
19:00−3з339794 11.6 101487
22:00−4зюз239695 1.6 101588